Weather Roundup
Issued by NWS

Home | Current Version | Previous Version | Text Only | Print | Product List | Glossary On
Versions: 1 2 3 4 5 6 7 8 9 10 11 12 13 14 15 16 17 18 19 20 21 22 23 24 25 26 27 28 29 30 31 32 33 34 35 36 37 38 39 40 41 42 43 44 45 46 47 48 49 50
656
NZUS93 KARX 261959
HRRWXR

CURRENT HOURLY OBSERVATIONS ACROSS
MUCH OF THE UPPER MISSISSIPPI VALLEY
NATIONAL WEATHER SERVICE LA CROSSE WI
300 PM CDT SUN MAR 26 2017


...SOUTHEAST MINNESOTA...


CITY           SKY/WX    TMP DP  RH WIND       PRES   REMARKS
ROCHESTER      CLOUDY    40  39  97 N12       29.87R WCI  33
ROCHESTER/MAYO CLOUDY    40  40 100 NW5       29.87S
WINONA         CLOUDY    41  37  87 CALM      29.88S
AUSTIN         CLOUDY    41  37  87 N10       29.86F
ALBERT LEA     CLOUDY    39  39 100 N8        29.87S WCI  34
DODGE CENTER   CLOUDY    39  37  93 NW9       29.87S FOG     WCI  33
PRESTON        CLOUDY    40  38  91 NE5       29.86S
OWATONNA       CLOUDY    41  37  87 N6        29.88F
FARIBAULT      CLOUDY    41  39  93 N5        29.89F
$$

...ELSEWHERE IN MINNESOTA...


CITY           SKY/WX    TMP DP  RH WIND       PRES   REMARKS
MINNEAPOLIS    CLOUDY    42  36  79 N6        29.90F
INTNL FALLS    CLOUDY    44  32  62 N6        29.94F
DULUTH         CLOUDY    36  34  92 NE5       29.91F WCI  32
RED WING       CLOUDY    43  37  81 N3        29.88S
REDWOOD FALLS  CLOUDY    44  35  70 N8        29.91F
MANKATO        CLOUDY    41  37  86 N8        29.90S
WORTHINGTON    CLOUDY    41  37  86 N9        29.92R
FAIRMONT       CLOUDY    41  38  89 N12       29.90S
$$

...SOUTHWEST WISCONSIN...


CITY           SKY/WX    TMP DP  RH WIND       PRES   REMARKS
LA CROSSE      CLOUDY    43  39  86 N6        29.86F FOG
PRAIRIE DU CHI CLOUDY    43  42  97 NW9       29.84F
BOSCOBEL       CLOUDY    46  42  86 VRB5      29.84F
LONE ROCK      CLOUDY    43  39  87 N7        29.84F FOG
PLATTEVILLE    CLOUDY    47  47 100 NE3       29.82S
FORT MC COY    CLOUDY    40  38  95 N5        29.87S
MAUSTON-NEW LI DRIZZLE   40  39  97 N3        29.85S
VIROQUA        CLOUDY    40  40 100 NE5       29.84S
WIS DELLS      LGT RAIN  40  39  97 NE6       29.84F
$$

...ELSEWHERE IN WISCONSIN...


CITY           SKY/WX    TMP DP  RH WIND       PRES   REMARKS
MILWAUKEE      CLOUDY    46  43  89 N3        29.82F FOG
MADISON        LGT RAIN  45  43  93 N5        29.82F
GREEN BAY      LGT RAIN  38  38 100 NE12      29.87S WCI  30
EAU CLAIRE     NOT AVBL
BLACK RVR FLS  CLOUDY    40  40 100 N5        29.86F FOG
MEDFORD        CLOUDY    38  36  94 CALM      29.85F
WAUSAU         CLOUDY    39  37  92 NE5       29.83F
WIS RAPIDS     CLOUDY    38  38 100 E6        29.87S FOG     WCI  33
MARSHFIELD     CLOUDY    39  36  89 E5        29.84F FOG
RICE LAKE      CLOUDY    42  37  84 CALM      29.89F
$$

...NORTHEAST IOWA...


CITY           SKY/WX    TMP DP  RH WIND       PRES   REMARKS
WATERLOO       CLOUDY    46  43  89 NW7       29.85S
DUBUQUE        FOG       48  48 100 N5        29.82R VSB 3/4
DECORAH        CLOUDY    43  41  93 CALM      29.84S
MASON CITY     CLOUDY    45  41  86 N10       29.87F
CHARLES CITY   CLOUDY    45  45 100 N7        29.85F
OELWEIN        CLOUDY    45  45 100 N6        29.85S
$$

...ELSEWHERE IN IOWA...


CITY           SKY/WX    TMP DP  RH WIND       PRES   REMARKS
DES MOINES     CLOUDY    47  44  90 W10       29.89S
IOWA CITY      CLOUDY    50  46  86 NW12      29.85F
FORT DODGE     CLOUDY    45  39  81 NW6       29.90S
MARSHALLTOWN   CLOUDY    47  45  93 NW8       29.85S
CEDAR RAPIDS   CLOUDY    46  46 100 NW8       29.83F
$$

...NORTHERN ILLINOIS...


CITY           SKY/WX    TMP DP  RH WIND       PRES   REMARKS
CHICAGO-OHARE  CLOUDY    62  51  67 W9        29.80S
CHICAGO-MIDWAY CLOUDY    61  50  67 SW14      29.81S
MOLINE         FOG       52  49  89 SW9       29.82S VSB 1
ROCKFORD       CLOUDY    58  51  78 SW12      29.82S
PEORIA         CLOUDY    53  49  86 W9        29.84F
$$

NOTE: "FAIR" INDICATES FEW OR NO CLOUDS BELOW 12,000 FEET WITH NO
SIGNIFICANT WEATHER AND/OR OBSTRUCTIONS TO VISIBILITY. WIND
SPEEDS ARE IN MILES-PER-HOUR.




USA.gov is the U.S. government's official web portal to all federal, state and local government web resources and services.